PEGASUS DEB, 39914

Orbit data source: Space-Track

PEGASUS DEB, 39914 is space debris in LEO originally from a launch on Thu, 19 May 1994 UTC launched from the Air Force Western Test Range (AFWTR). Debris objects in space refer to the collection of defunct objects orbiting the Earth. Examples of debris include non-operational satellites, rocket bodies, and fragments generated from explosions, collisions, or faulty payload assembly.

Loading next visibility...
Identifier
39914, 1994-029AFM
Orbit
LEO
Country
Flag of USUS
Related business
Manufacturer
Unknown
Mission
Spacecraft
Bus & Motor
Unknown
Mass
Unknown
Launch date (UTC)
1994-05-19 (32 years ago)
Launch vehicle
Unknown
Launch site
Air Force Western Test Range (AFWTR)
Object type
Payload
Rocket body
Debris
Shape & HBR
Unknown shape, 0.1 m
Radar Cross Section
Small (<0.1 m²)

Expand to show TLE details & history
Last TLE update: 14 hours ago

TLE from 14 hours ago
0 PEGASUS DEB
1 39914U 94029AFM 26067.96935131  .00012116  00000-0  22952-2 0  9991
2 39914  81.3387  74.0014 0335619  52.9091 310.2272 14.33874448604796
Epoch: 2026-03-08T23:15Z
TLE epoch observation values (Epoch: 2026-03-08T23:15:51.953Z)
Latitude
0.00002°
Longitude
-81.63409°
Altitude
631.442 km
Speed
7.621 km/s
True Right ascension
04h 56m 00s
True Declination
0° 00' 00"
Sunlit
Object was in daylight at epoch
Visualization orbit readout
Latitude
Unknown
Longitude
Unknown
Altitude
Unknown
Speed
Unknown
Apparent Right ascension
Unknown
Apparent Declination
Unknown
Sunlit
N/A
Visualization observer readout
Local Sidereal Time
17:00:23
Azimuth
Unknown
Elevation
Unknown
Doppler factor
Unknown
Orbital elements
Apogee altitude
1,016.047 km
Perigee altitude
535.838 km
Semi-major axis
7,154.079 km
Eccentricity
0.03356
Inclination
81.3387°
RAAN
74.0014°
Arg. of periapsis
52.9091°
True anomaly
307.21061°
Mean anomaly
310.2272°
Eccentric anomaly
308.72703°
Mean motion
3.58684 °/min
Orbital period
100.37 mins
BSTAR
0.0022952
Loading maneuver chart data...
Computing Atmospheric mass density...
Loading historical data...
Loading historical data...
Loading historical data...
Loading historical data...
Loading historical data...
Loading historical data...
Loading historical data...

Documentation

Showing up to 5 results
|